Location: Borojevi?i
(45.0486°N, 16.2297°E)
Time: 16:40:13
(UTC+00:00)

COSMOS 2406 - Pass Details

Date: 08 August 2020
Orbit: 845 x 862 km, 71.0° (Epoch: 24 September)

Event Time Altitude Azimuth Distance (km) Brightness Sun altitude
Rises 19:46:41 0° 216° (SW) 3,424 6.3 -14.9°
Reaches altitude 10° 19:49:10 10° 220° (SW) 2,490 5.6 -15.2°
Maximum altitude 19:54:49 59° 299° (WNW) 987 3.9 -16.0°
Drops below altitude 10° 20:00:29 10° 19° (NNE) 2,496 6.0 -16.7°
Sets 20:03:00 0° 24° (NNE) 3,433 6.7 -17.0°
